DMSP 5D-2 F13 DEB, 40515

Orbit data source: Space-Track

DMSP 5D-2 F13 DEB, 40515 is space debris in SSO originally from a launch on Fri, 24 Mar 1995 UTC launched from the Air Force Western Test Range (AFWTR). Debris objects in space refer to the collection of defunct objects orbiting the Earth. Examples of debris include non-operational satellites, rocket bodies, and fragments generated from explosions, collisions, or faulty payload assembly.

Loading next visibility...
Identifier
40515, 1995-015DB
Orbit
SSO
Country
Flag of USUS
Related business
Manufacturer
Unknown
Mission
Spacecraft
Bus & Motor
Unknown
Mass
Unknown
Launch date (UTC)
1995-03-24 (31 years ago)
Launch vehicle
Unknown
Launch site
Air Force Western Test Range (AFWTR)
Object type
Payload
Rocket body
Debris
Shape & HBR
Unknown shape, 0.1 m
Radar Cross Section
Small (<0.1 m²)

Expand to show TLE details & history
Last TLE update: 2 days ago

TLE from 2 days ago
0 DMSP 5D-2 F13 DEB
1 40515U 95015DB  26034.06439983  .00005962  00000-0  20036-2 0  9997
2 40515  98.8323  70.7899 0015070 309.1108  50.8737 14.37476300562362
Epoch: 2026-02-03T01:32Z
TLE epoch observation values (Epoch: 2026-02-03T01:32:44.145Z)
Latitude
-0.00003°
Longitude
-85.64473°
Altitude
762.997 km
Speed
7.476 km/s
True Right ascension
04h 43m 09s
True Declination
0° 00' 00"
Sunlit
Object was in daylight at epoch
Visualization orbit readout
Latitude
Unknown
Longitude
Unknown
Altitude
Unknown
Speed
Unknown
Apparent Right ascension
Unknown
Apparent Declination
Unknown
Sunlit
N/A
Visualization observer readout
Local Sidereal Time
22:19:46
Azimuth
Unknown
Elevation
Unknown
Doppler factor
Unknown
Orbital elements
Apogee altitude
774.753 km
Perigee altitude
753.227 km
Semi-major axis
7,142.127 km
Eccentricity
0.00151
Inclination
98.8323°
RAAN
70.7899°
Arg. of periapsis
309.1108°
True anomaly
51.00782°
Mean anomaly
50.8737°
Eccentric anomaly
50.94075°
Mean motion
3.59585 °/min
Orbital period
100.12 mins
BSTAR
0.0020036
Loading maneuver chart data...
Computing Atmospheric mass density...

Documentation

Showing up to 5 results
|